{"data":{"norad_id":67890,"intl_designator":"2026-035M","name":"STARLINK-36363","alt_names":[],"object_type":"PAYLOAD","status":"ACTIVE","operator":null,"country":"US","launch_date":"2026-02-21","launch_site_code":"AFWTR","launch_vehicle":null,"mission":null,"orbit_class":"UNKNOWN","rcs_meters":null,"size_class":null,"mass_kg":null,"dimensions":null,"purposes":["comms"],"wikipedia_slug":null,"has_3d_model":false,"image_url":null,"decayed_at":null,"tle_current":{"epoch":"2026-05-24T19:47:46.170816Z","epoch_age_seconds":93472,"freshness":"FRESH","line1":"1 67890U 26035M   26144.82483994  .00028641  00000+0  88570-3 0  9991","line2":"2 67890  97.2843  78.3186 0001812  99.4452 260.6996 15.33459315 15657","mean_motion":15.33459315,"eccentricity":0.0001812,"inclination_deg":97.2843,"raan_deg":78.3186,"arg_perigee_deg":99.4452,"mean_anomaly_deg":260.6996,"bstar":0.0008857,"rev_number":1565,"period_min":93.905328032782,"perigee_km":464.2605163108,"apogee_km":466.74065057104,"semimajor_km":6843.6375834409,"source":"CELESTRAK","updated_at":"2026-05-25T13:38:21.733893Z"}}}